{"data":{"norad_id":68914,"epoch":"2026-05-25T01:38:19.698720Z","epoch_age_seconds":79821,"freshness":"FRESH","line1":"1 68914U 26097V   26145.06828355  .00064503  00000+0  11777-2 0  9999","line2":"2 68914  97.2857 340.7687 0002306  79.5142 280.6369 15.49193522  3932","mean_motion":15.49193522,"eccentricity":0.0002306,"inclination_deg":97.2857,"raan_deg":340.7687,"arg_perigee_deg":79.5142,"mean_anomaly_deg":280.6369,"bstar":0.0011777,"rev_number":393,"period_min":92.951589297957,"perigee_km":417.51660196431,"apogee_km":420.65148030849,"semimajor_km":6797.2210411364,"source":"CELESTRAK","updated_at":"2026-05-25T13:38:22.070373Z"}}